Zurück zum Katalog

DELTA 1 DEB

AktivSSO
NORAD 21388·DEBRIS·🇺🇸 United States

Gestartet Jun 12, 1975 von Vandenberg Space Force Base

Loading…

Nächste Überflüge (nächste 24 Stunden)

TLE

AktuellSource: Space-Track

Epoche: Sep 14, 2026, 09:55 UTC

1 21388U 75052DJ  26257.41329017  .00000058  00000-0  15253-3 0  9992
2 21388  99.5090 131.0679 0072574  38.5308 138.3017 13.50687633739379

Verfolge DELTA 1 DEB in Echtzeit mit AllMySat

Download on the App Store